Regional Weather Roundup
Issued by NWS

Home | Current Version | Previous Version | Text Only | Print | Product List | Glossary Off
Versions: 1 2 3 4 5 6 7 8 9 10 11 12 13 14 15 16 17 18 19 20 21 22 23 24 25 26 27 28 29 30 31 32 33 34 35 36 37 38 39 40 41 42 43 44 45 46 47 48 49 50

000
ASUS43 KIND 261159
RWRIN

WEATHER ROUNDUP FOR INDIANA
NATIONAL WEATHER SERVICE INDIANAPOLIS IN
700 AM EST SUN FEB 26 2017

NOTE: "FAIR" INDICATES FEW OR NO CLOUDS BELOW 12,000 FEET WITH NO
SIGNIFICANT WEATHER AND/OR OBSTRUCTIONS TO VISIBILITY.

* - STATION DOES NOT REPORT WEATHER SUCH AS PRECIPITATION OR FOG.

+ - STATION NOT QUALITY CONTROLLED BY THE NATIONAL WEATHER SERVICE.
    USE DATA WITH CAUTION...ESPECIALLY DEWPOINT AND RELATIVE
    HUMIDITY OBSERVATIONS.

INZ001>003-010>013-019-020-261300-
NORTHWEST INDIANA

CITY           SKY/WX    TMP DP  RH WIND       PRES   REMARKS
GARY /AIRPORT/ PTCLDY    25  19  80 S8        30.06S WCI  16
KNOX *+        CLEAR     21   5  49 S8        30.08F WCI  12

$$

LMZ046-743>745-261300-
SOUTHERN LAKE MICHIGAN

STATION/POSITION TIME  TEMP    WIND        PRES    WAVE
                       AIR SEA DIR/SP/G            HT
                 (UTC) (F)     (DEG/KT/KT) (MB)    (FT)
BURNS HARBOR     1140   24     170/  9/ 14 1017.9F
MICHIGAN CITY    1130   23     140/  8/  9   N/A

$$

INZ004-005-014>016-021>024-261300-
NORTH CENTRAL INDIANA

CITY           SKY/WX    TMP DP  RH WIND       PRES   REMARKS
GOSHEN         CLEAR     21  14  74 SW7       30.07S WCI  12
6HR MIN TEMP:  21; 6HR MAX TEMP:  26;

SOUTH BEND     CLOUDY    20  15  81 S7        30.07R WCI  11
6HR MIN TEMP:  19; 6HR MAX TEMP:  26;


$$

INZ006>009-017-018-025>027-261300-
NORTHEAST INDIANA

CITY           SKY/WX    TMP DP  RH WIND       PRES   REMARKS
ANGOLA *+      CLEAR     19  18  93 S6        30.06R WCI  11
FORT WAYNE     PTCLDY    20  15  81 SW6       30.11R WCI  12
6HR MIN TEMP:  20; 6HR MAX TEMP:  27; 6HR PCP: TRACE;

KENDALLVILLE + CLEAR     21  17  83 SW5       30.08R WCI  15

$$

INZ028-029-035-036-043>045-051>053-261300-
WEST CENTRAL INDIANA

CITY           SKY/WX    TMP DP  RH WIND       PRES   REMARKS
LAFAYETTE      CLEAR     18  16  92 CALM      30.12S
6HR MIN TEMP:  18; 6HR MAX TEMP:  23;

TERRE HAUTE    CLEAR     21  16  81 S5        30.16S WCI  15
6HR MIN TEMP:  20; 6HR MAX TEMP:  26;


$$

INZ030>032-037>040-046>048-054>057-064-065-261300-
CENTRAL INDIANA

CITY           SKY/WX    TMP DP  RH WIND       PRES   REMARKS
COLUMBUS       CLEAR     21  18  86 SW5       30.19  WCI  15
GREENWOOD *+   CLEAR     23  18  81 CALM      30.17R
6HR MIN TEMP:  22; 6HR MAX TEMP:  28;

INDIANAPOLIS   PTCLDY    20  15  81 S7        30.15R WCI  11
6HR MIN TEMP:  20; 6HR MAX TEMP:  25;

-EAGLE CREEK   CLEAR     20  15  81 S3        30.14R
6HR MIN TEMP:  20; 6HR MAX TEMP:  27;

KOKOMO +       PTCLDY    18  17  96 S8        30.13R WCI   8
6HR MIN TEMP:  17; 6HR MAX TEMP:  23;

MT COMFORT *+  CLEAR     19  16  86 SW5       30.16R WCI  13
SHELBYVILLE    CLEAR     22  15  75 S5        30.16R WCI  16
6HR MIN TEMP:  20; 6HR MAX TEMP:  27;


$$

INZ033-034-041-042-049-050-058-059-261300-
EAST CENTRAL INDIANA

CITY           SKY/WX    TMP DP  RH WIND       PRES   REMARKS
MUNCIE         CLEAR     22  16  78 SW5       30.13R WCI  16
6HR MIN TEMP:  21; 6HR MAX TEMP:  28;


$$

INZ060-061-067>069-081>083-085>088-261300-
SOUTHWEST INDIANA

CITY           SKY/WX    TMP DP  RH WIND       PRES   REMARKS
EVANSVILLE     CLEAR     24  18  77 CALM      30.21S
6HR MIN TEMP:  22; 6HR MAX TEMP:  31;

HUNTINGBURG *+ CLEAR     20  16  84 SE6       30.21S WCI  12
6HR MIN TEMP:  19; 6HR MAX TEMP:  27;


$$

INZ062-063-066-070>080-084-089>092-261300-
SOUTH CENTRAL AND SOUTHEAST INDIANA

CITY           SKY/WX    TMP DP  RH WIND       PRES   REMARKS
BLOOMINGTON    CLEAR     19  13  77 CALM      30.16R
6HR MIN TEMP:  18; 6HR MAX TEMP:  27;

MADISON *+     PTCLDY    23  19  86 CALM      30.21R
SEYMOUR +      CLEAR     21  18  86 S3        30.20R

$$





USA.gov is the U.S. government's official web portal to all federal, state and local government web resources and services.